User: anonymous   Login
Location: Strawberry
(45.6646°N, 111.9596°W)
Time: 01:39:44
(UTC+00:00)
Language:

RS-44 - Orbit

View from above orbital plane
View from above orbital plane
View from above satellite
View from above satellite

Ground track
Ground track

The orbit data is extracted from the following two-line orbital elements,

1 44909U 19096E   22343.31842178  .00000006  00000-0 -12347-4 0  9997
2 44909  82.5201 114.1141 0216432 270.8492  86.7818 12.79716957137877
Epoch (UTC): 09 December 2022 07:38:31
Eccentricity: 0.0216432
inclination: 82.5201°
perigee height: 1175 km
apogee height: 1510 km
right ascension of ascending node: 114.1141°
argument of perigee: 270.8492°
revolutions per day: 12.79716957
mean anomaly at epoch: 86.7818°
orbit number at epoch: 13787

The dashed part of the orbit path shows where the satellite is in the earth's shadow,  

DLR